| time (UTC) | temp F | wind direction | speed knots | gust knots | rain 1hr in | rain 24hr in | rain mn in | humidity % | barometer mb |
| 20260510184016 | 72 | 180 | 3.5 | 8.7 | 0.00 | 0.00 | 0.00 | 57 | 1012.2 |
| 20260510183516 | 72 | 203 | 3.5 | 8.7 | 0.00 | 0.00 | 0.00 | 57 | 1012.3 |
| 20260510183016 | 72 | 180 | 5.2 | 13.0 | 0.00 | 0.00 | 0.00 | 56 | 1012.2 |
| 20260510182516 | 72 | 180 | 4.3 | 12.2 | 0.00 | 0.00 | 0.00 | 56 | 1012.0 |
| 20260510182016 | 73 | 180 | 3.5 | 8.7 | 0.00 | 0.00 | 0.00 | 55 | 1012.1 |
| 20260510181536 | 73 | 180 | 3.5 | 9.6 | 0.00 | 0.00 | 0.00 | 55 | 1012.1 |
| 20260510181017 | 73 | 203 | 5.2 | 12.2 | 0.00 | 0.00 | 0.00 | 55 | 1012.0 |
| 20260510180517 | 73 | 203 | 7.0 | 13.0 | 0.00 | 0.00 | 0.00 | 54 | 1012.0 |
| 20260510180017 | 73 | 203 | 7.8 | 14.8 | 0.00 | 0.00 | 0.00 | 54 | 1012.0 |
| 20260510175516 | 73 | 203 | 7.0 | 16.5 | 0.00 | 0.00 | 0.00 | 54 | 1012.0 |
| 20260510175017 | 74 | 203 | 7.0 | 14.8 | 0.00 | 0.00 | 0.00 | 53 | 1012.0 |
| 20260510174536 | 74 | 203 | 7.0 | 13.9 | 0.00 | 0.00 | 0.00 | 53 | 1012.0 |
| 20260510174016 | 74 | 180 | 7.8 | 14.8 | 0.00 | 0.00 | 0.00 | 52 | 1012.0 |
| 20260510173517 | 74 | 180 | 7.8 | 14.8 | 0.00 | 0.00 | 0.00 | 52 | 1011.9 |
| 20260510173036 | 74 | 225 | 8.7 | 15.6 | 0.00 | 0.00 | 0.00 | 52 | 1012.1 |
| 20260510172516 | 74 | 203 | 11.3 | 16.5 | 0.00 | 0.00 | 0.00 | 52 | 1011.9 |
| 20260510172016 | 74 | 203 | 11.3 | 19.1 | 0.00 | 0.00 | 0.00 | 52 | 1011.9 |
| 20260510171517 | 75 | 203 | 7.8 | 14.8 | 0.00 | 0.00 | 0.00 | 52 | 1011.8 |
| 20260510171016 | 75 | 203 | 8.7 | 15.6 | 0.00 | 0.00 | 0.00 | 51 | 1011.9 |
| 20260510170517 | 75 | 203 | 10.4 | 18.2 | 0.00 | 0.00 | 0.00 | 51 | 1012.0 |
| 20260510170036 | 75 | 158 | 8.7 | 16.5 | 0.00 | 0.00 | 0.00 | 51 | 1012.0 |
| 20260510165516 | 75 | 180 | 10.4 | 18.2 | 0.00 | 0.00 | 0.00 | 51 | 1012.0 |
| 20260510165037 | 75 | 180 | 7.0 | 18.2 | 0.00 | 0.00 | 0.00 | 50 | 1012.1 |
| 20260510164516 | 75 | 135 | 8.7 | 16.5 | 0.00 | 0.00 | 0.00 | 50 | 1012.0 |
| 20260510164016 | 75 | 203 | 7.8 | 18.2 | 0.00 | 0.00 | 0.00 | 50 | 1012.1 |
| 20260510163516 | 75 | 203 | 9.6 | 16.5 | 0.00 | 0.00 | 0.00 | 50 | 1012.1 |
| 20260510163017 | 75 | 180 | 10.4 | 17.4 | 0.00 | 0.00 | 0.00 | 50 | 1012.1 |
| 20260510162517 | 75 | 180 | 11.3 | 18.2 | 0.00 | 0.00 | 0.00 | 53 | 1012.1 |
| 20260510162016 | 75 | 158 | 12.2 | 20.0 | 0.00 | 0.00 | 0.00 | 54 | 1012.2 |
| 20260510161516 | 75 | 158 | 12.2 | 21.7 | 0.00 | 0.00 | 0.00 | 54 | 1012.1 |
| 20260510161017 | 75 | 158 | 9.6 | 15.6 | 0.00 | 0.00 | 0.00 | 54 | 1012.2 |
| 20260510160516 | 75 | 158 | 11.3 | 19.1 | 0.00 | 0.00 | 0.00 | 54 | 1012.1 |
| 20260510160037 | 74 | 158 | 13.0 | 21.7 | 0.00 | 0.00 | 0.00 | 54 | 1012.0 |
| 20260510155556 | 74 | 158 | 13.9 | 22.6 | 0.00 | 0.00 | 0.00 | 54 | 1012.0 |
| 20260510155016 | 75 | 158 | 12.2 | 20.9 | 0.00 | 0.00 | 0.00 | 54 | 1012.1 |
| 20260510154517 | 75 | 135 | 12.2 | 21.7 | 0.00 | 0.00 | 0.00 | 53 | 1012.1 |
| 20260510154016 | 75 | 135 | 12.2 | 22.6 | 0.00 | 0.00 | 0.00 | 53 | 1012.3 |
| 20260510153516 | 75 | 135 | 8.7 | 17.4 | 0.00 | 0.00 | 0.00 | 54 | 1012.2 |
| 20260510153016 | 75 | 158 | 13.9 | 21.7 | 0.00 | 0.00 | 0.00 | 54 | 1012.2 |
| 20260510152516 | 75 | 180 | 9.6 | 17.4 | 0.00 | 0.00 | 0.00 | 53 | 1012.2 |
| 20260510152016 | 74 | 158 | 10.4 | 20.0 | 0.00 | 0.00 | 0.00 | 54 | 1012.2 |
| 20260510151556 | 74 | 158 | 12.2 | 21.7 | 0.00 | 0.00 | 0.00 | 57 | 1012.2 |
| 20260510151016 | 73 | 135 | 11.3 | 20.0 | 0.00 | 0.00 | 0.00 | 61 | 1012.4 |
| 20260510150536 | 73 | 135 | 12.2 | 20.9 | 0.00 | 0.00 | 0.00 | 63 | 1012.2 |
| 20260510150018 | 73 | 113 | 12.2 | 18.2 | 0.00 | 0.00 | 0.00 | 62 | 1012.3 |
| 20260510145516 | 73 | 135 | 11.3 | 21.7 | 0.00 | 0.00 | 0.00 | 62 | 1012.3 |
| 20260510145016 | 73 | 113 | 12.2 | 25.2 | 0.00 | 0.00 | 0.00 | 63 | 1012.4 |
| 20260510144516 | 73 | 113 | 9.6 | 23.5 | 0.00 | 0.00 | 0.00 | 65 | 1012.5 |
| 20260510144016 | 73 | 113 | 13.0 | 20.0 | 0.00 | 0.00 | 0.00 | 65 | 1012.5 |
| 20260510143516 | 72 | 135 | 11.3 | 19.1 | 0.00 | 0.00 | 0.00 | 68 | 1012.6 |
| 20260510143016 | 72 | 135 | 9.6 | 17.4 | 0.00 | 0.00 | 0.00 | 69 | 1012.7 |
| 20260510142517 | 72 | 113 | 9.6 | 13.9 | 0.00 | 0.00 | 0.00 | 71 | 1012.6 |
| 20260510142017 | 72 | 113 | 11.3 | 16.5 | 0.00 | 0.00 | 0.00 | 72 | 1012.7 |
| 20260510141516 | 71 | 113 | 6.1 | 14.8 | 0.00 | 0.00 | 0.00 | 72 | 1012.8 |
| 20260510141043 | 71 | 135 | 7.0 | 13.0 | 0.00 | 0.00 | 0.00 | 73 | 1013.0 |
| 20260510140551 | 71 | 113 | 9.6 | 16.5 | 0.00 | 0.00 | 0.00 | 73 | 1013.1 |
| 20260510140036 | 72 | 135 | 10.4 | 15.6 | 0.00 | 0.00 | 0.00 | 71 | 1013.2 |
| 20260510135516 | 72 | 135 | 7.8 | 13.0 | 0.00 | 0.00 | 0.00 | 70 | 1013.3 |
| 20260510135045 | 71 | 135 | 7.8 | 16.5 | 0.00 | 0.00 | 0.00 | 70 | 1013.4 |
| 20260510134516 | 71 | 135 | 7.8 | 13.9 | 0.00 | 0.00 | 0.00 | 72 | 1013.4 |
| 20260510134017 | 71 | 113 | 8.7 | 15.6 | 0.00 | 0.00 | 0.00 | 73 | 1013.6 |
| 20260510133536 | 71 | 135 | 7.8 | 14.8 | 0.00 | 0.00 | 0.00 | 73 | 1013.6 |
| 20260510133021 | 71 | 90 | 7.0 | 10.4 | 0.00 | 0.00 | 0.00 | 73 | 1013.5 |
| 20260510132516 | 70 | 113 | 6.1 | 11.3 | 0.00 | 0.00 | 0.00 | 74 | 1013.6 |
| 20260510132017 | 70 | 90 | 7.8 | 11.3 | 0.00 | 0.00 | 0.00 | 72 | 1013.6 |
| 20260510131524 | 70 | 90 | 5.2 | 10.4 | 0.00 | 0.00 | 0.00 | 75 | 1013.8 |
| 20260510131016 | 69 | 90 | 6.1 | 9.6 | 0.00 | 0.00 | 0.00 | 75 | 1013.9 |
| 20260510130516 | 69 | 113 | 7.0 | 11.3 | 0.00 | 0.00 | 0.00 | 74 | 1014.0 |
| 20260510130026 | 69 | 113 | 7.8 | 11.3 | 0.00 | 0.00 | 0.00 | 75 | 1014.1 |
| 20260510125516 | 69 | 113 | 6.1 | 10.4 | 0.00 | 0.00 | 0.00 | 76 | 1014.1 |
| 20260510125016 | 69 | 113 | 5.2 | 9.6 | 0.00 | 0.00 | 0.00 | 76 | 1014.2 |
| 20260510124516 | 69 | 113 | 3.5 | 7.8 | 0.00 | 0.00 | 0.00 | 77 | 1014.3 |
| 20260510124016 | 68 | 135 | 3.5 | 9.6 | 0.00 | 0.00 | 0.00 | 76 | 1014.4 |
| 20260510123521 | 68 | 135 | 6.1 | 9.6 | 0.00 | 0.00 | 0.00 | 77 | 1014.5 |
| 20260510123023 | 69 | 135 | 6.1 | 10.4 | 0.00 | 0.00 | 0.00 | 75 | 1014.7 |
| 20260510122521 | 69 | 158 | 5.2 | 9.6 | 0.00 | 0.00 | 0.00 | 73 | 1014.8 |
| 20260510122016 | 68 | 158 | 4.3 | 10.4 | 0.00 | 0.00 | 0.00 | 75 | 1014.7 |
| 20260510121536 | 68 | 135 | 6.1 | 8.7 | 0.00 | 0.00 | 0.00 | 74 | 1014.8 |
| 20260510121016 | 68 | 135 | 6.1 | 11.3 | 0.00 | 0.00 | 0.00 | 75 | 1014.8 |
| 20260510120516 | 69 | 135 | 6.1 | 13.9 | 0.00 | 0.01 | 0.00 | 74 | 1014.8 |
| 20260510120016 | 69 | 135 | 8.7 | 13.0 | 0.00 | 0.02 | 0.00 | 71 | 1014.8 |
| 20260510115516 | 69 | 135 | 7.8 | 13.9 | 0.00 | 0.02 | 0.00 | 70 | 1014.8 |
| 20260510115016 | 70 | 135 | 8.7 | 15.6 | 0.00 | 0.02 | 0.00 | 68 | 1014.8 |
| 20260510114556 | 69 | 135 | 7.8 | 13.0 | 0.00 | 0.02 | 0.00 | 67 | 1014.9 |
| 20260510114016 | 69 | 113 | 11.3 | 15.6 | 0.00 | 0.02 | 0.00 | 68 | 1014.9 |
| 20260510113516 | 69 | 113 | 9.6 | 16.5 | 0.00 | 0.02 | 0.00 | 69 | 1015.0 |
| 20260510113036 | 70 | 113 | 7.8 | 15.6 | 0.00 | 0.02 | 0.00 | 69 | 1015.1 |
| 20260510112536 | 70 | 135 | 9.6 | 17.4 | 0.00 | 0.02 | 0.00 | 68 | 1015.2 |
| 20260510112016 | 71 | 135 | 11.3 | 18.2 | 0.00 | 0.02 | 0.00 | 64 | 1015.1 |
| 20260510111536 | 72 | 135 | 9.6 | 13.0 | 0.00 | 0.02 | 0.00 | 61 | 1015.2 |
| 20260510111036 | 73 | 113 | 6.1 | 10.4 | 0.00 | 0.02 | 0.00 | 61 | 1015.1 |
| 20260510110516 | 73 | 113 | 5.2 | 12.2 | 0.00 | 0.02 | 0.00 | 61 | 1015.1 |
| 20260510110016 | 73 | 113 | 4.3 | 9.6 | 0.00 | 0.02 | 0.00 | 60 | 1015.2 |
| 20260510105516 | 74 | 158 | 6.1 | 10.4 | 0.00 | 0.02 | 0.00 | 57 | 1015.3 |
| 20260510105016 | 74 | 113 | 3.5 | 7.0 | 0.00 | 0.02 | 0.00 | 56 | 1015.3 |
| 20260510104516 | 74 | 203 | 1.7 | 6.1 | 0.00 | 0.02 | 0.00 | 56 | 1015.3 |
| 20260510104016 | 74 | 135 | 3.5 | 8.7 | 0.00 | 0.02 | 0.00 | 54 | 1015.3 |
| 20260510103536 | 73 | 158 | 1.7 | 4.3 | 0.00 | 0.02 | 0.00 | 55 | 1015.3 |
| 20260510103016 | 73 | 158 | 0.9 | 4.3 | 0.00 | 0.02 | 0.00 | 58 | 1015.3 |
| 20260510102516 | 72 | 158 | 0.9 | 5.2 | 0.00 | 0.03 | 0.00 | 61 | 1015.3 |
| 20260510102036 | 72 | 135 | 1.7 | 7.0 | 0.00 | 0.04 | 0.00 | 61 | 1015.3 |
| 20260510101536 | 72 | 23 | 3.5 | 7.8 | 0.00 | 0.04 | 0.00 | 60 | 1015.4 |
| 20260510101016 | 72 | 23 | 1.7 | 4.3 | 0.00 | 0.06 | 0.00 | 55 | 1015.3 |
| 20260510100535 | 72 | 270 | 1.7 | 3.5 | 0.00 | 0.06 | 0.00 | 55 | 1015.3 |
| 20260510100016 | 72 | 248 | 1.7 | 3.5 | 0.00 | 0.08 | 0.00 | 58 | 1015.4 |
| 20260510095516 | 72 | 248 | 1.7 | 4.3 | 0.00 | 0.09 | 0.00 | 57 | 1015.4 |
| 20260510095016 | 72 | 248 | 1.7 | 2.6 | 0.00 | 0.09 | 0.00 | 57 | 1015.5 |
| 20260510094516 | 72 | 248 | 0.9 | 3.5 | 0.00 | 0.09 | 0.00 | 59 | 1015.5 |
| 20260510094016 | 72 | 248 | 1.7 | 7.0 | 0.00 | 0.10 | 0.00 | 58 | 1015.7 |
| 20260510093516 | 72 | 270 | 1.7 | 6.1 | 0.00 | 0.11 | 0.00 | 59 | 1015.7 |
| 20260510093016 | 71 | 270 | 0.9 | 5.2 | 0.00 | 0.11 | 0.00 | 60 | 1015.6 |
| 20260510092515 | 71 | 270 | 0.9 | 2.6 | 0.00 | 0.12 | 0.00 | 59 | 1015.6 |
| 20260510092016 | 71 | 270 | 0.9 | 3.5 | 0.00 | 0.13 | 0.00 | 60 | 1015.6 |
| 20260510091515 | 70 | 270 | 0.9 | 2.6 | 0.00 | 0.15 | 0.00 | 61 | 1015.6 |
| 20260510091015 | 70 | 0.0 | 1.7 | 0.00 | 0.17 | 0.00 | 63 | 1015.8 | |
| 20260510090515 | 70 | 270 | 1.7 | 7.0 | 0.00 | 0.17 | 0.00 | 62 | 1015.9 |
| 20260510090016 | 70 | 270 | 0.9 | 5.2 | 0.00 | 0.17 | 0.00 | 62 | 1015.9 |
| 20260510085515 | 69 | 0.0 | 2.6 | 0.00 | 0.18 | 0.00 | 63 | 1016.0 | |
| 20260510085036 | 69 | 270 | 0.9 | 3.5 | 0.00 | 0.18 | 0.00 | 63 | 1015.9 |
| 20260510084516 | 69 | 0.0 | 1.7 | 0.00 | 0.20 | 0.00 | 63 | 1015.8 | |
| 20260510084015 | 70 | 270 | 1.7 | 7.0 | 0.00 | 0.22 | 0.00 | 62 | 1015.7 |
| 20260510083515 | 71 | 270 | 1.7 | 7.8 | 0.00 | 0.22 | 0.00 | 60 | 1015.8 |
| 20260510083035 | 71 | 270 | 0.9 | 5.2 | 0.00 | 0.23 | 0.00 | 59 | 1015.8 |
| 20260510082516 | 71 | 270 | 1.7 | 5.2 | 0.00 | 0.23 | 0.00 | 60 | 1015.8 |
| 20260510082016 | 71 | 270 | 0.9 | 5.2 | 0.00 | 0.24 | 0.00 | 60 | 1015.8 |
| 20260510081515 | 71 | 270 | 0.9 | 2.6 | 0.00 | 0.24 | 0.00 | 62 | 1015.8 |
| 20260510081015 | 71 | 270 | 1.7 | 3.5 | 0.00 | 0.24 | 0.00 | 62 | 1015.9 |
| 20260510080516 | 70 | 270 | 1.7 | 5.2 | 0.00 | 0.25 | 0.00 | 64 | 1015.9 |
| 20260510080015 | 70 | 293 | 0.9 | 5.2 | 0.00 | 0.25 | 0.00 | 66 | 1015.9 |
| 20260510075535 | 70 | 293 | 1.7 | 5.2 | 0.00 | 0.25 | 0.00 | 68 | 1016.0 |
| 20260510075036 | 69 | 293 | 3.5 | 7.0 | 0.00 | 0.26 | 0.00 | 70 | 1015.9 |
| 20260510074515 | 69 | 293 | 3.5 | 6.1 | 0.00 | 0.28 | 0.00 | 72 | 1015.9 |
| 20260510074015 | 68 | 270 | 2.6 | 5.2 | 0.00 | 0.28 | 0.00 | 73 | 1016.0 |
| 20260510073516 | 68 | 270 | 0.9 | 3.5 | 0.00 | 0.29 | 0.00 | 74 | 1016.2 |
| 20260510073016 | 68 | 270 | 2.6 | 7.0 | 0.00 | 0.30 | 0.00 | 75 | 1016.1 |
| 20260510072635 | 67 | 270 | 2.6 | 5.2 | 0.00 | 0.32 | 0.00 | 76 | 1016.1 |
| 20260510072015 | 67 | 270 | 2.6 | 7.0 | 0.00 | 0.32 | 0.00 | 76 | 1016.0 |
| 20260510071515 | 67 | 293 | 0.9 | 2.6 | 0.00 | 0.32 | 0.00 | 78 | 1015.9 |
| 20260510071015 | 66 | 293 | 0.9 | 2.6 | 0.00 | 0.32 | 0.00 | 80 | 1015.8 |
| 20260510070515 | 65 | 293 | 1.7 | 3.5 | 0.00 | 0.32 | 0.00 | 81 | 1015.9 |
| 20260510070016 | 64 | 0.0 | 2.6 | 0.00 | 0.32 | 0.00 | 82 | 1015.7 | |
| 20260510065516 | 64 | 0.0 | 0.0 | 0.00 | 0.32 | 0.00 | 82 | 1015.6 | |
| 20260510065015 | 63 | 0.0 | 1.7 | 0.00 | 0.33 | 0.00 | 83 | 1015.5 | |
| 20260510064515 | 63 | 0.0 | 0.0 | 0.00 | 0.34 | 0.00 | 84 | 1015.6 | |
| 20260510064015 | 62 | 293 | 0.9 | 2.6 | 0.00 | 0.35 | 0.00 | 85 | 1015.7 |
| 20260510063515 | 61 | 270 | 2.6 | 5.2 | 0.00 | 0.38 | 0.00 | 85 | 1015.7 |
| 20260510063016 | 61 | 270 | 2.6 | 5.2 | 0.00 | 0.40 | 0.00 | 86 | 1015.7 |
| 20260510062515 | 60 | 270 | 1.7 | 3.5 | 0.00 | 0.41 | 0.00 | 86 | 1015.7 |
| 20260510062035 | 60 | 270 | 1.7 | 2.6 | 0.00 | 0.41 | 0.00 | 86 | 1015.8 |
| 20260510061515 | 59 | 270 | 2.6 | 5.2 | 0.00 | 0.42 | 0.00 | 87 | 1015.7 |
| 20260510061035 | 59 | 293 | 3.5 | 6.1 | 0.00 | 0.43 | 0.00 | 87 | 1015.6 |
| 20260510060515 | 59 | 293 | 4.3 | 6.1 | 0.00 | 0.45 | 0.00 | 87 | 1015.6 |
| 20260510060015 | 58 | 293 | 4.3 | 6.1 | 0.00 | 0.48 | 0.00 | 87 | 1015.5 |
| 20260510055535 | 58 | 293 | 3.5 | 6.1 | 0.00 | 0.50 | 0.00 | 87 | 1015.5 |
| 20260510055015 | 58 | 270 | 3.5 | 5.2 | 0.00 | 0.51 | 0.00 | 88 | 1015.4 |
| 20260510054515 | 57 | 270 | 2.6 | 3.5 | 0.00 | 0.53 | 0.00 | 88 | 1015.3 |
| 20260510054015 | 57 | 270 | 2.6 | 5.2 | 0.00 | 0.54 | 0.00 | 88 | 1015.3 |
| 20260510053515 | 57 | 270 | 3.5 | 5.2 | 0.00 | 0.54 | 0.00 | 88 | 1015.3 |
| 20260510053015 | 57 | 293 | 3.5 | 5.2 | 0.00 | 0.54 | 0.00 | 88 | 1015.2 |
| 20260510052515 | 57 | 293 | 4.3 | 6.1 | 0.00 | 0.54 | 0.00 | 88 | 1015.2 |
| 20260510052035 | 57 | 270 | 4.3 | 6.1 | 0.00 | 0.54 | 0.00 | 88 | 1015.2 |
| 20260510051535 | 57 | 293 | 3.5 | 5.2 | 0.00 | 0.54 | 0.00 | 88 | 1015.2 |
| 20260510051035 | 57 | 270 | 2.6 | 3.5 | 0.00 | 0.54 | 0.00 | 88 | 1015.3 |
| 20260510050535 | 57 | 293 | 3.5 | 5.2 | 0.00 | 0.54 | 0.00 | 88 | 1015.2 |
| 20260510050015 | 57 | 293 | 2.6 | 3.5 | 0.00 | 0.54 | 0.00 | 88 | 1015.2 |
| 20260510045515 | 57 | 293 | 2.6 | 5.2 | 0.00 | 0.54 | 0.00 | 88 | 1015.2 |
| 20260510045017 | 57 | 293 | 3.5 | 5.2 | 0.00 | 0.54 | 0.00 | 88 | 1015.1 |
| 20260510044517 | 57 | 293 | 3.5 | 5.2 | 0.00 | 0.54 | 0.00 | 88 | 1015.2 |
| 20260510044018 | 57 | 293 | 2.6 | 5.2 | 0.00 | 0.54 | 0.00 | 88 | 1015.2 |
| 20260510043517 | 57 | 270 | 2.6 | 3.5 | 0.00 | 0.54 | 0.00 | 88 | 1015.2 |
| 20260510043017 | 57 | 293 | 2.6 | 3.5 | 0.00 | 0.54 | 0.00 | 88 | 1015.1 |
| 20260510042515 | 57 | 293 | 2.6 | 3.5 | 0.00 | 0.54 | 0.00 | 88 | 1015.0 |
| 20260510042017 | 57 | 293 | 2.6 | 3.5 | 0.00 | 0.54 | 0.00 | 88 | 1015.0 |
| 20260510041517 | 57 | 293 | 2.6 | 3.5 | 0.00 | 0.54 | 0.00 | 88 | 1015.0 |
| 20260510041017 | 57 | 270 | 2.6 | 3.5 | 0.00 | 0.54 | 0.00 | 88 | 1015.0 |
| 20260510040537 | 57 | 293 | 2.6 | 3.5 | 0.00 | 0.54 | 0.00 | 88 | 1014.9 |
| 20260510040017 | 57 | 293 | 1.7 | 3.5 | 0.00 | 0.54 | 0.00 | 88 | 1014.9 |
| 20260510035517 | 58 | 293 | 1.7 | 2.6 | 0.00 | 0.54 | 0.00 | 88 | 1014.9 |
| 20260510035017 | 58 | 293 | 1.7 | 2.6 | 0.00 | 0.54 | 0.00 | 88 | 1014.9 |
| 20260510034517 | 58 | 293 | 0.9 | 1.7 | 0.00 | 0.54 | 0.00 | 88 | 1014.8 |
| 20260510034017 | 58 | 270 | 1.7 | 1.7 | 0.00 | 0.54 | 0.00 | 88 | 1014.8 |
| 20260510033517 | 58 | 315 | 0.9 | 2.6 | 0.00 | 0.54 | 0.00 | 88 | 1014.9 |
| 20260510033017 | 58 | 0.0 | 1.7 | 0.00 | 0.54 | 0.00 | 88 | 1014.8 | |
| 20260510032517 | 58 | 0.0 | 1.7 | 0.00 | 0.54 | 0.00 | 88 | 1014.8 | |
| 20260510032017 | 58 | 315 | 1.7 | 2.6 | 0.00 | 0.54 | 0.00 | 88 | 1014.8 |
| 20260510031517 | 58 | 315 | 1.7 | 3.5 | 0.00 | 0.54 | 0.00 | 88 | 1014.7 |
| 20260510031017 | 58 | 315 | 1.7 | 3.5 | 0.00 | 0.54 | 0.00 | 88 | 1014.7 |
| 20260510030517 | 57 | 315 | 2.6 | 4.3 | 0.00 | 0.54 | 0.00 | 88 | 1014.7 |
| 20260510030017 | 57 | 293 | 2.6 | 5.2 | 0.00 | 0.54 | 0.00 | 88 | 1014.7 |
| 20260510025517 | 57 | 293 | 2.6 | 3.5 | 0.00 | 0.54 | 0.00 | 88 | 1014.8 |
| 20260510025017 | 57 | 293 | 3.5 | 5.2 | 0.00 | 0.54 | 0.00 | 88 | 1014.7 |
| 20260510024517 | 58 | 293 | 3.5 | 6.1 | 0.00 | 0.54 | 0.00 | 88 | 1014.6 |
| 20260510024017 | 58 | 293 | 3.5 | 6.1 | 0.00 | 0.54 | 0.00 | 88 | 1014.6 |
| 20260510023517 | 58 | 293 | 3.5 | 6.1 | 0.00 | 0.54 | 0.00 | 88 | 1014.6 |
| 20260510023037 | 58 | 270 | 2.6 | 5.2 | 0.00 | 0.54 | 0.00 | 88 | 1014.6 |
| 20260510022517 | 58 | 270 | 2.6 | 3.5 | 0.00 | 0.54 | 0.00 | 88 | 1014.6 |
| 20260510022037 | 58 | 293 | 2.6 | 3.5 | 0.00 | 0.54 | 0.00 | 88 | 1014.6 |
| 20260510021517 | 58 | 293 | 1.7 | 2.6 | 0.00 | 0.54 | 0.00 | 88 | 1014.6 |
| 20260510021017 | 58 | 315 | 2.6 | 4.3 | 0.00 | 0.54 | 0.00 | 88 | 1014.5 |
| 20260510020537 | 59 | 315 | 1.7 | 3.5 | 0.00 | 0.54 | 0.00 | 88 | 1014.5 |
| 20260510020017 | 59 | 315 | 2.6 | 3.5 | 0.00 | 0.54 | 0.00 | 88 | 1014.6 |
| 20260510015537 | 59 | 315 | 2.6 | 3.5 | 0.00 | 0.54 | 0.00 | 88 | 1014.6 |
| 20260510015017 | 59 | 315 | 3.5 | 4.3 | 0.00 | 0.54 | 0.00 | 88 | 1014.6 |
| 20260510014517 | 59 | 315 | 2.6 | 4.3 | 0.00 | 0.54 | 0.00 | 88 | 1014.5 |
| 20260510014017 | 59 | 315 | 0.9 | 2.6 | 0.00 | 0.54 | 0.00 | 88 | 1014.6 |
| 20260510013517 | 59 | 315 | 1.7 | 4.3 | 0.00 | 0.54 | 0.00 | 88 | 1014.6 |
| 20260510013017 | 59 | 315 | 1.7 | 3.5 | 0.00 | 0.54 | 0.00 | 87 | 1014.5 |
| 20260510012517 | 59 | 315 | 1.7 | 2.6 | 0.00 | 0.54 | 0.00 | 87 | 1014.6 |
| 20260510012017 | 59 | 315 | 0.9 | 1.7 | 0.00 | 0.54 | 0.00 | 87 | 1014.6 |
| 20260510011517 | 59 | 315 | 0.9 | 2.6 | 0.00 | 0.54 | 0.00 | 87 | 1014.8 |
| 20260510011037 | 59 | 315 | 1.7 | 2.6 | 0.00 | 0.54 | 0.00 | 87 | 1014.7 |
| 20260510010517 | 59 | 338 | 2.6 | 3.5 | 0.00 | 0.54 | 0.00 | 87 | 1014.7 |
| 20260510010017 | 59 | 23 | 1.7 | 3.5 | 0.00 | 0.54 | 0.00 | 87 | 1014.8 |
| 20260510005517 | 59 | 23 | 1.7 | 3.5 | 0.00 | 0.54 | 0.00 | 87 | 1014.8 |
| 20260510005037 | 59 | 23 | 1.7 | 3.5 | 0.00 | 0.54 | 0.00 | 87 | 1015.0 |
| 20260510004517 | 59 | 23 | 0.9 | 3.5 | 0.00 | 0.54 | 0.00 | 87 | 1015.0 |
| 20260510004017 | 59 | 0.0 | 1.7 | 0.00 | 0.54 | 0.00 | 87 | 1015.0 | |
| 20260510003516 | 59 | 0.0 | 1.7 | 0.00 | 0.54 | 0.00 | 87 | 1015.0 | |
| 20260510003037 | 60 | 0 | 2.6 | 7.8 | 0.00 | 0.54 | 0.00 | 86 | 1014.9 |
| 20260510002517 | 60 | 0 | 4.3 | 7.8 | 0.00 | 0.54 | 0.00 | 86 | 1014.8 |
| 20260510002017 | 60 | 23 | 4.3 | 7.8 | 0.00 | 0.54 | 0.00 | 86 | 1014.9 |
| 20260510001517 | 60 | 45 | 5.2 | 7.8 | 0.00 | 0.54 | 0.00 | 86 | 1015.0 |
| 20260510001017 | 60 | 68 | 3.5 | 7.0 | 0.00 | 0.54 | 0.00 | 86 | 1015.2 |
| 20260510000517 | 60 | 68 | 2.6 | 5.2 | 0.00 | 0.54 | 0.00 | 85 | 1015.2 |
| 20260510000017 | 60 | 68 | 4.3 | 5.2 | 0.00 | 0.54 | 0.00 | 85 | 1015.2 |
| 20260509235536 | 60 | 68 | 4.3 | 6.1 | 0.00 | 0.54 | 0.00 | 85 | 1015.3 |
| 20260509235017 | 60 | 68 | 2.6 | 6.1 | 0.00 | 0.54 | 0.00 | 84 | 1015.2 |
| 20260509234516 | 60 | 68 | 2.6 | 6.1 | 0.00 | 0.54 | 0.00 | 84 | 1015.4 |
| 20260509234016 | 60 | 68 | 1.7 | 3.5 | 0.00 | 0.54 | 0.00 | 84 | 1015.4 |
| 20260509233516 | 60 | 68 | 3.5 | 6.1 | 0.00 | 0.54 | 0.00 | 83 | 1015.5 |
| 20260509233017 | 61 | 90 | 3.5 | 6.1 | 0.00 | 0.54 | 0.00 | 83 | 1015.5 |
| 20260509232517 | 61 | 90 | 1.7 | 5.2 | 0.00 | 0.54 | 0.00 | 82 | 1015.4 |
| 20260509232016 | 61 | 113 | 1.7 | 3.5 | 0.00 | 0.54 | 0.00 | 82 | 1015.4 |
| 20260509231516 | 61 | 0.0 | 1.7 | 0.00 | 0.54 | 0.00 | 82 | 1015.4 | |
| 20260509231017 | 61 | 0.0 | 0.0 | 0.00 | 0.54 | 0.00 | 82 | 1015.5 | |
| 20260509230517 | 61 | 0.0 | 0.0 | 0.00 | 0.54 | 0.00 | 82 | 1015.6 | |
| 20260509230017 | 61 | 113 | 0.9 | 1.7 | 0.00 | 0.54 | 0.00 | 82 | 1015.6 |
| 20260509225516 | 61 | 113 | 0.9 | 2.6 | 0.00 | 0.54 | 0.00 | 82 | 1015.6 |
| 20260509225016 | 61 | 135 | 0.9 | 2.6 | 0.00 | 0.54 | 0.00 | 82 | 1015.7 |
| 20260509224517 | 61 | 0.0 | 0.9 | 0.00 | 0.54 | 0.00 | 82 | 1015.7 | |
| 20260509224016 | 62 | 0.0 | 1.7 | 0.00 | 0.54 | 0.00 | 81 | 1015.7 | |
| 20260509223516 | 62 | 0.0 | 0.0 | 0.00 | 0.54 | 0.00 | 81 | 1015.7 | |
| 20260509223017 | 62 | 0.0 | 0.0 | 0.00 | 0.54 | 0.00 | 81 | 1015.7 | |
| 20260509222517 | 62 | 0.0 | 0.0 | 0.00 | 0.54 | 0.00 | 81 | 1015.6 | |
| 20260509222016 | 62 | 0.0 | 0.0 | 0.00 | 0.54 | 0.00 | 81 | 1015.6 | |
| 20260509221516 | 62 | 0.0 | 1.7 | 0.00 | 0.54 | 0.00 | 81 | 1015.6 | |
| 20260509221017 | 62 | 0.0 | 1.7 | 0.00 | 0.54 | 0.00 | 81 | 1015.3 | |
| 20260509220537 | 62 | 0.0 | 0.0 | 0.00 | 0.54 | 0.00 | 81 | 1015.5 | |
| 20260509220036 | 62 | 0.0 | 0.0 | 0.00 | 0.54 | 0.54 | 81 | 1015.3 | |
| 20260509215515 | 62 | 0.0 | 0.0 | 0.00 | 0.54 | 0.54 | 82 | 1015.4 | |
| 20260509215016 | 62 | 0.0 | 0.0 | 0.00 | 0.54 | 0.54 | 82 | 1015.5 | |
| 20260509214516 | 62 | 0.0 | 0.0 | 0.00 | 0.54 | 0.54 | 82 | 1015.6 | |
| 20260509214015 | 62 | 0.0 | 0.0 | 0.00 | 0.54 | 0.54 | 82 | 1015.6 | |
| 20260509213536 | 62 | 0.0 | 0.0 | 0.00 | 0.54 | 0.54 | 82 | 1015.5 | |
| 20260509213015 | 62 | 0.0 | 0.0 | 0.00 | 0.54 | 0.54 | 83 | 1015.5 | |
| 20260509212535 | 62 | 0.0 | 2.6 | 0.00 | 0.54 | 0.54 | 83 | 1015.5 | |
| 20260509212055 | 62 | 0.0 | 1.7 | 0.00 | 0.54 | 0.54 | 83 | 1015.4 | |
| 20260509211515 | 62 | 0.0 | 1.7 | 0.00 | 0.54 | 0.54 | 83 | 1015.4 | |
| 20260509211016 | 62 | 158 | 0.9 | 1.7 | 0.00 | 0.54 | 0.54 | 83 | 1015.4 |
| 20260509210516 | 62 | 0.0 | 0.9 | 0.00 | 0.54 | 0.54 | 83 | 1015.4 | |
| 20260509210015 | 62 | 0.0 | 0.9 | 0.00 | 0.54 | 0.54 | 83 | 1015.3 | |
| 20260509205515 | 63 | 0.0 | 0.0 | 0.00 | 0.54 | 0.54 | 83 | 1015.2 | |
| 20260509205015 | 63 | 0.0 | 0.0 | 0.00 | 0.54 | 0.54 | 83 | 1015.3 | |
| 20260509204535 | 63 | 0.0 | 0.0 | 0.00 | 0.54 | 0.54 | 83 | 1015.2 | |
| 20260509204015 | 63 | 0.0 | 0.0 | 0.00 | 0.54 | 0.54 | 82 | 1015.2 | |
| 20260509203515 | 63 | 0.0 | 0.0 | 0.00 | 0.54 | 0.54 | 82 | 1015.1 | |
| 20260509203015 | 63 | 0.0 | 0.0 | 0.00 | 0.54 | 0.54 | 82 | 1015.0 | |
| 20260509202515 | 63 | 0.0 | 0.0 | 0.00 | 0.54 | 0.54 | 82 | 1015.0 | |
| 20260509202015 | 63 | 0.0 | 0.0 | 0.00 | 0.54 | 0.54 | 82 | 1015.0 | |
| 20260509201515 | 63 | 0.0 | 0.0 | 0.00 | 0.54 | 0.54 | 82 | 1014.9 | |
| 20260509201015 | 64 | 0.0 | 0.0 | 0.00 | 0.54 | 0.54 | 82 | 1014.9 | |
| 20260509200515 | 64 | 0.0 | 1.7 | 0.00 | 0.54 | 0.54 | 82 | 1014.8 | |
| 20260509200015 | 63 | 158 | 0.9 | 2.6 | 0.00 | 0.54 | 0.54 | 83 | 1014.7 |
| 20260509195515 | 63 | 158 | 2.6 | 7.0 | 0.00 | 0.54 | 0.54 | 83 | 1014.7 |
| 20260509195015 | 63 | 135 | 3.5 | 7.0 | 0.00 | 0.54 | 0.54 | 83 | 1014.6 |
| 20260509194515 | 63 | 135 | 3.5 | 6.1 | 0.00 | 0.54 | 0.54 | 83 | 1014.5 |
| 20260509194015 | 63 | 135 | 1.7 | 4.3 | 0.00 | 0.54 | 0.54 | 83 | 1014.5 |
| 20260509193515 | 64 | 158 | 1.7 | 5.2 | 0.00 | 0.54 | 0.54 | 83 | 1014.5 |
| 20260509193017 | 64 | 135 | 1.7 | 5.2 | 0.00 | 0.54 | 0.54 | 83 | 1014.4 |
| 20260509192517 | 64 | 0.0 | 2.6 | 0.00 | 0.54 | 0.54 | 83 | 1014.4 | |
| 20260509192018 | 64 | 135 | 1.7 | 3.5 | 0.00 | 0.54 | 0.54 | 83 | 1014.3 |
| 20260509191517 | 64 | 135 | 0.9 | 3.5 | 0.00 | 0.54 | 0.54 | 83 | 1014.3 |
| 20260509191017 | 64 | 135 | 1.7 | 5.2 | 0.00 | 0.54 | 0.54 | 83 | 1014.3 |
| 20260509190537 | 64 | 135 | 2.6 | 5.2 | 0.00 | 0.54 | 0.54 | 83 | 1014.1 |
| 20260509190017 | 64 | 135 | 3.5 | 8.7 | 0.00 | 0.54 | 0.54 | 83 | 1014.1 |
| 20260509185517 | 64 | 158 | 2.6 | 6.1 | 0.00 | 0.54 | 0.54 | 84 | 1013.9 |
| 20260509185017 | 64 | 135 | 1.7 | 7.0 | 0.00 | 0.54 | 0.54 | 84 | 1013.9 |
| 20260509184537 | 64 | 135 | 2.6 | 7.8 | 0.00 | 0.54 | 0.54 | 84 | 1013.8 |